JAK

operational
NORAD ID: 26093 Int'l Des: 2000-004 Owner: SCU Country: US
LEOCIRCULARRETROGRADE

Über JAK

Beschreibung wird geladen...

Live-Position

3D-Globus wird geladen...

Nächste Überflüge

Höhenverlauf

Altitude vs Time

uPlot chart will show altitude changes over time

Zweizeiliger Elementsatz

1 26093U 00004L 26061.26307764 .00004676 00000-0 88983-3 0 9996
2 26093 100.1758 183.5453 0024363 172.5743 187.5819 14.64564344376792
Epoch: 2. März 2026 • Age: 28 hours

Aktueller Status

Höhe 697.1 km
Geschwindigkeit 7.50 km/s
Subsatellitenpunkt 7.14°N, 32.51°W
Startdatum 27. Jan. 2000
Alter 26 years
Typ other

Technische Details

Klassifizierung Payload
Masse 0.20 kg
Trockenmasse 0.20 kg
Gesamtmasse 0.20 kg
Länge 0.03 m
Durchmesser 0.10 m
Spannweite 0.10 m
Form Box
Hersteller SCU
Bus-Typ Picosat
Phasenstatus In Orbit
Besitzer/Staat SCU/US

Große Konstellationen

Loading constellations...